Weather History for White Plains, NY

Change the Weather History Date:

Thursday, November 28, 2013

  Actual Average Record
Temperature  
Mean Temperature 28 °F -  
Max Temperature 32 °F 46 °F 65 °F (1990)
Min Temperature 25 °F 32 °F 17 °F (1982)
Degree Days  
Heating Degree Days 36    
Moisture  
Dew Point 12 °F    
Average Humidity 48    
Maximum Humidity 58    
Minimum Humidity 37    
Precipitation  
Precipitation 0.00 in - - ()
Sea Level Pressure  
Sea Level Pressure 30.20 in    
Wind  
Wind Speed 19 mph (WNW)    
Max Wind Speed 29 mph    
Max Gust Speed 39 mph    
Visibility 10 miles    
Events      
Averages and records for this station are not official NWS values.
T = Trace of Precipitation, MM = Missing Value Source: NWS Daily Summary

Daily Weather History Graph

Daily Weather History Graph

Search for Another Location

Airport:

Trip Planner

Search our weather history database for the weather conditions in past years. The results will help you decide how hot, cold, wet, or windy it might be!

Date:

Astronomy

Nov. 28, 2013 Rise Set
Actual Time 6:57 AM EST 4:27 PM EST
Civil Twilight 6:27 AM EST 4:58 PM EST
Nautical Twilight 5:53 AM EST 5:32 PM EST
Astronomical Twilight 5:20 AM EST 6:05 PM EST
Moon 1:55 AM EST (11/28) 1:38 PM EST (11/28)
Length of Visible Light 10h 31m
Length of Day
9h 30m
Waning Crescent, 22% of the Moon is Illuminated
Nov 28
Waning Crescent
Dec 2
New
Dec 9
First Quarter
Dec 17
Full
Dec 25
Last Quarter

Hourly Weather History & Observations

Time (EST) Temp. Windchill Dew Point Humidity Pressure Visibility Wind Dir Wind Speed Gust Speed Precip Events Conditions
12:56 AM 30.9 °F 17.8 °F 17.1 °F 57% 29.75 in 10.0 mi WNW 23.0 mph 38.0 mph N/A   Clear
1:56 AM 30.9 °F 17.2 °F 16.0 °F 54% 29.79 in 10.0 mi WNW 25.3 mph 33.4 mph N/A   Mostly Cloudy
2:56 AM 30.0 °F 16.0 °F 15.1 °F 54% 29.83 in 10.0 mi WNW 25.3 mph 36.8 mph N/A   Partly Cloudy
3:56 AM 30.0 °F 15.7 °F 15.1 °F 54% 29.90 in 10.0 mi NW 26.5 mph 38.0 mph N/A   Mostly Cloudy
4:56 AM 28.9 °F 14.3 °F 15.1 °F 56% 29.96 in 10.0 mi WNW 26.5 mph 39.1 mph N/A   Mostly Cloudy
5:56 AM 28.9 °F 14.5 °F 12.9 °F 51% 30.01 in 10.0 mi WNW 25.3 mph 32.2 mph N/A   Mostly Cloudy
6:56 AM 28.0 °F 12.5 °F 10.9 °F 49% 30.08 in 10.0 mi West 28.8 mph 38.0 mph N/A   Partly Cloudy
7:56 AM 27.0 °F 12.8 °F 10.0 °F 49% 30.13 in 10.0 mi WNW 21.9 mph 35.7 mph N/A   Partly Cloudy
8:56 AM 28.9 °F 17.3 °F 10.9 °F 47% 30.16 in 10.0 mi West 16.1 mph 21.9 mph N/A   Partly Cloudy
9:56 AM 28.9 °F 15.8 °F 10.0 °F 45% 30.21 in 10.0 mi WNW 20.7 mph 31.1 mph N/A   Scattered Clouds
10:56 AM 30.0 °F 17.9 °F 10.9 °F 45% 30.22 in 10.0 mi NW 18.4 mph 26.5 mph N/A   Partly Cloudy
11:56 AM 30.9 °F 19.1 °F 12.0 °F 46% 30.22 in 10.0 mi WNW 18.4 mph 24.2 mph N/A   Partly Cloudy
12:56 PM 32.0 °F 20.1 °F 10.9 °F 42% 30.24 in 10.0 mi NW 19.6 mph 25.3 mph N/A   Partly Cloudy
1:56 PM 32.0 °F 20.5 °F 9.0 °F 38% 30.25 in 10.0 mi WNW 18.4 mph 25.3 mph N/A   Clear
2:56 PM 32.0 °F 22.5 °F 8.1 °F 37% 30.28 in 10.0 mi WNW 12.7 mph 23.0 mph N/A   Clear
3:56 PM 30.9 °F 22.2 °F 8.1 °F 38% 30.32 in 10.0 mi NW 10.4 mph - N/A   Clear
4:56 PM 30.0 °F 21.7 °F 8.1 °F 40% 30.35 in 10.0 mi West 9.2 mph - N/A   Clear
5:56 PM 28.0 °F 22.8 °F 9.0 °F 45% 30.39 in 10.0 mi NW 4.6 mph - N/A   Clear
6:56 PM 27.0 °F 23.0 °F 10.0 °F 49% 30.42 in 10.0 mi WNW 3.5 mph - N/A   Clear
7:56 PM 25.0 °F - 10.9 °F 55% 30.45 in 10.0 mi Calm Calm - N/A   Clear
8:56 PM 25.0 °F - 10.9 °F 55% 30.45 in 10.0 mi Calm Calm - N/A   Clear
9:56 PM 27.0 °F - 9.0 °F 47% 30.46 in 10.0 mi Calm Calm - N/A   Mostly Cloudy
10:56 PM 28.0 °F - 10.9 °F 49% 30.47 in 10.0 mi Calm Calm - N/A   Mostly Cloudy
11:56 PM 28.0 °F - 15.1 °F 58% 30.47 in 10.0 mi Calm Calm - N/A   Overcast